Hourly Weather Roundup
Issued by NWS Central Illinois

Home | Current Version | Previous Version | Text Only | Print | Product List | Glossary On
Versions: 1 2 3 4 5 6 7 8 9 10 11 12 13 14 15 16 17 18 19 20 21 22 23 24 25 26 27 28 29 30 31 32 33 34 35 36 37 38 39 40 41 42 43 44 45 46 47 48 49 50
921
NZUS43 KILX 210810
HWRILX

AREA WEATHER ROUNDUP
NATIONAL WEATHER SERVICE, LINCOLN IL
200 AM CST TUE FEB 21 2017


CITY           SKY/WX    TMP DP  RH WIND       PRES   REMARKS
BLOOMINGTON    CLOUDY    58  51  78 SW8       29.95S
CHAMPAIGN      CLOUDY    57  48  72 S6        29.94S
DECATUR        CLOUDY    58  49  72 SW6       29.93S
EFFINGHAM      CLOUDY    56  50  81 NE3       29.94F
FLORA          CLOUDY    56  49  78 CALM      29.95S
GALESBURG      DRIZZLE   56  56 100 SE7       29.90F
JACKSONVILLE   HVY RAIN  58  56  94 NW3       29.93S
LACON          RAIN      56  55  96 CALM      29.92S
LAWRENCEVILLE  CLOUDY    54  46  74 SE3       29.96S
LITCHFIELD     CLOUDY    58  51  79 S5        29.94S
$$


CITY           SKY/WX    TMP DP  RH WIND       PRES   REMARKS
LINCOLN        RAIN      59  54  82 CALM      29.94R
MACOMB         LGT RAIN  56  56 100 SE5       29.94F
MATTOON        MOCLDY    58  49  72 S7        29.94R
MT CARMEL AP   CLOUDY    55  46  73 SE3       29.96S
OLNEY-NOBLE AP CLOUDY    55  50  82 CALM      29.95S
PARIS          CLOUDY    52  47  84 SE5       29.97S
PEORIA         LGT RAIN  58  57  97 NW5       29.93F
PONTIAC        CLOUDY    57  53  86 S8        29.94S
RANTOUL        CLOUDY    56  49  79 S5        29.95R
SPRINGFIELD    LGT RAIN  59  54  83 SW3       29.94R
TAYLORVILLE    CLOUDY    59  51  74 S7        29.93F
$$

...REGIONAL REPORTS...


CITY           SKY/WX    TMP DP  RH WIND       PRES   REMARKS
CHICAGO O`HARE CLOUDY    59  47  64 SW12      29.90R
KANKAKEE       MOCLDY    53  46  77 CALM      29.95S
MOLINE         CLOUDY    58  55  90 W5        29.90R
MOUNT STERLING LGT RAIN  56  56  99 CALM      29.93S VSB 1
MOUNT VERNON   CLOUDY    55  50  83 CALM      29.94F
PITTSFIELD     LGT RAIN  59  59 100 CALM      29.95R
QUINCY         FOG       57  57 100 SE5       29.93S VSB 1/4
ROCKFORD       LGT RAIN  56  54  93 S7        29.90F
$$


CITY           SKY/WX    TMP DP  RH WIND       PRES   REMARKS
BURLINGTON     CLOUDY    57  57 100 SW7       29.90S FOG
CEDAR RAPIDS   CLOUDY    48  47  96 NW9       29.90R
DES MOINES     PTCLDY    47  42  83 NW8       29.95R
KIRKSVILLE     CLOUDY    56  54  93 CALM      29.92S
OTTUMWA        MOCLDY    50  47  89 NW9       29.93R
ST LOUIS       RAIN      62  59  90 CALM      29.94S
$$


CITY           SKY/WX    TMP DP  RH WIND       PRES   REMARKS
TERRE HAUTE    CLOUDY    55  45  68 SE5       29.96S
EVANSVILLE     CLOUDY    56  46  69 CALM      29.98R
INDIANAPOLIS   CLOUDY    54  46  74 SE10      29.98S
LAFAYETTE      CLOUDY    55  47  74 S5        29.96R
MADISON        LGT RAIN  55  54  96 S9        29.82F
MILWAUKEE      LGT RAIN  56  50  80 SW13      29.89R
$$






USA.gov is the U.S. government's official web portal to all federal, state and local government web resources and services.